WZZ58VA HEMA-EPKK

Flight info

Callsign WZZ58VA
Flight time 4h 3m
Altitude 30000
Route SIBRI1A SIBRI V730 SOBEL L315 HGD M872 SEMRU A727 CVO L617 NOZ L551 ANTAR UN133 RIGRO/N0433F320 UN133 ATFIR N133 LOMOS DCT OLMIP DCT NARKA DCT KSC DCT LENOV
Aircraft A21N/M-SDE1E2E3FGIJ1J4RWXY/LB1

Departure

Time 2026-05-07 09:20
Airport Marsa Alam International Airport (HEMA)

Arrival

Time 2026-05-07 13:24
Airport Kraków John Paul II International Airport (EPKK)
Time Latitude Longitude Altitude Speed Heading
2026-05-07 08:48 25.55520 34.59071 243 ft 0 kts 59°
2026-05-07 09:09 25.55516 34.59064 243 ft 2 kts 59°
2026-05-07 09:09 25.55508 34.59050 244 ft 2 kts 60°
2026-05-07 09:10 25.55501 34.59036 244 ft 2 kts 60°
2026-05-07 09:10 25.55493 34.59021 245 ft 2 kts 60°
2026-05-07 09:10 25.55486 34.59007 246 ft 2 kts 78°
2026-05-07 09:10 25.55486 34.58990 246 ft 2 kts 107°
2026-05-07 09:11 25.55493 34.58976 247 ft 2 kts 135°
2026-05-07 09:11 25.55500 34.58969 247 ft 1 kts 151°
2026-05-07 09:11 25.55505 34.58967 247 ft 0 kts 150°
2026-05-07 09:17 25.55504 34.58968 247 ft 2 kts 150°
2026-05-07 09:17 25.55436 34.59010 246 ft 18 kts 151°
2026-05-07 09:17 25.55313 34.59090 244 ft 17 kts 148°
2026-05-07 09:17 25.55207 34.59129 244 ft 14 kts 204°
2026-05-07 09:18 25.55160 34.59046 247 ft 12 kts 239°
2026-05-07 09:18 25.55079 34.59011 250 ft 17 kts 154°
2026-05-07 09:18 25.54946 34.59096 250 ft 23 kts 149°
2026-05-07 09:18 25.54805 34.59185 249 ft 23 kts 150°
2026-05-07 09:19 25.54681 34.59261 247 ft 16 kts 162°
2026-05-07 09:19 25.54607 34.59207 250 ft 11 kts 242°
2026-05-07 09:19 25.54575 34.59139 253 ft 9 kts 242°
2026-05-07 09:19 25.54577 34.59102 255 ft 5 kts 309°
2026-05-07 09:20 25.54684 34.59026 258 ft 48 kts 331°
2026-05-07 09:20 25.55185 34.58709 263 ft 117 kts 329°
2026-05-07 09:20 25.56072 34.58147 309 ft 169 kts 332°
2026-05-07 09:20 25.57100 34.57496 991 ft 171 kts 331°
2026-05-07 09:21 25.58080 34.56868 1850 ft 165 kts 331°
2026-05-07 09:21 25.59062 34.56244 2473 ft 165 kts 330°
2026-05-07 09:21 25.60097 34.55584 2747 ft 178 kts 330°
2026-05-07 09:21 25.61219 34.54866 3022 ft 192 kts 330°
2026-05-07 09:22 25.62414 34.54101 3299 ft 207 kts 330°
2026-05-07 09:22 25.63707 34.53271 3563 ft 223 kts 330°
2026-05-07 09:22 25.65112 34.52367 3815 ft 242 kts 330°
2026-05-07 09:22 25.66623 34.51393 4137 ft 258 kts 329°
2026-05-07 09:23 25.68209 34.50372 4626 ft 267 kts 329°
2026-05-07 09:23 25.69801 34.49346 5255 ft 270 kts 328°
2026-05-07 09:23 25.71435 34.48293 5879 ft 272 kts 328°
2026-05-07 09:23 25.73082 34.47229 6479 ft 275 kts 328°
2026-05-07 09:24 25.74720 34.46170 7087 ft 277 kts 328°
2026-05-07 09:24 25.76396 34.45084 7680 ft 281 kts 328°
2026-05-07 09:24 25.78093 34.43987 8236 ft 283 kts 328°
2026-05-07 09:24 25.79792 34.42889 8783 ft 285 kts 327°
2026-05-07 09:25 25.81512 34.41776 9326 ft 288 kts 327°
2026-05-07 09:25 25.83244 34.40656 9864 ft 290 kts 327°
2026-05-07 09:25 25.84995 34.39523 10389 ft 292 kts 327°
2026-05-07 09:25 25.86779 34.38366 10684 ft 304 kts 327°
2026-05-07 09:26 25.88652 34.37149 10939 ft 318 kts 327°
2026-05-07 09:26 25.90606 34.35881 11146 ft 330 kts 327°
2026-05-07 09:26 25.92619 34.34575 11460 ft 340 kts 327°
2026-05-07 09:26 25.94676 34.33246 11961 ft 343 kts 327°
2026-05-07 09:27 25.96744 34.31909 12489 ft 344 kts 327°
2026-05-07 09:27 25.98822 34.30564 13009 ft 347 kts 327°
2026-05-07 09:27 26.03016 34.27844 14025 ft 352 kts 327°
2026-05-07 09:28 26.05137 34.26467 14514 ft 355 kts 327°
2026-05-07 09:28 26.07284 34.25069 14982 ft 358 kts 327°
2026-05-07 09:28 26.09426 34.23676 15492 ft 360 kts 327°
2026-05-07 09:28 26.11594 34.22264 15977 ft 363 kts 327°
2026-05-07 09:29 26.13773 34.20847 16439 ft 366 kts 327°
2026-05-07 09:29 26.15979 34.19411 16895 ft 368 kts 327°
2026-05-07 09:29 26.18210 34.17958 17349 ft 370 kts 327°
2026-05-07 09:29 26.20414 34.16520 17808 ft 373 kts 327°
2026-05-07 09:30 26.22670 34.15048 18244 ft 375 kts 326°
2026-05-07 09:30 26.24939 34.13569 18703 ft 377 kts 326°
2026-05-07 09:30 26.27207 34.12089 19132 ft 379 kts 326°
2026-05-07 09:30 26.29458 34.10620 19544 ft 380 kts 326°
2026-05-07 09:31 26.31744 34.09126 19965 ft 382 kts 326°
2026-05-07 09:31 26.34064 34.07609 20385 ft 384 kts 326°
2026-05-07 09:31 26.36360 34.06107 20755 ft 386 kts 326°
2026-05-07 09:31 26.38685 34.04585 21163 ft 388 kts 326°
2026-05-07 09:32 26.41018 34.03057 21540 ft 389 kts 326°
2026-05-07 09:32 26.43335 34.01539 21908 ft 391 kts 326°
2026-05-07 09:32 26.45714 33.99980 22266 ft 393 kts 326°
2026-05-07 09:32 26.48059 33.98443 22618 ft 395 kts 326°
2026-05-07 09:33 26.50438 33.96882 22980 ft 397 kts 326°
2026-05-07 09:33 26.52817 33.95321 23322 ft 398 kts 326°
2026-05-07 09:33 26.55208 33.93750 23672 ft 400 kts 326°
2026-05-07 09:33 26.57612 33.92170 23993 ft 402 kts 326°
2026-05-07 09:34 26.60023 33.90584 24313 ft 403 kts 326°
2026-05-07 09:34 26.62447 33.88988 24630 ft 405 kts 326°
2026-05-07 09:34 26.64879 33.87387 24949 ft 406 kts 326°
2026-05-07 09:34 26.67320 33.85780 25238 ft 408 kts 326°
2026-05-07 09:35 26.69781 33.84162 25524 ft 409 kts 326°
2026-05-07 09:35 26.72242 33.82545 25798 ft 411 kts 326°
2026-05-07 09:35 26.74680 33.80941 26070 ft 412 kts 326°
2026-05-07 09:35 26.77183 33.79291 26348 ft 414 kts 326°
2026-05-07 09:36 26.79648 33.77664 26599 ft 416 kts 326°
2026-05-07 09:36 26.82134 33.76024 26850 ft 417 kts 326°
2026-05-07 09:36 26.84645 33.74365 27088 ft 419 kts 326°
2026-05-07 09:36 26.87165 33.72700 27318 ft 421 kts 326°
2026-05-07 09:37 26.89681 33.71035 27575 ft 422 kts 326°
2026-05-07 09:37 26.92221 33.69352 27819 ft 423 kts 326°
2026-05-07 09:37 26.94738 33.67686 28048 ft 424 kts 326°
2026-05-07 09:37 26.97285 33.66000 28305 ft 425 kts 326°
2026-05-07 09:38 26.99842 33.64303 28529 ft 427 kts 326°
2026-05-07 09:38 27.02410 33.62597 28729 ft 429 kts 326°
2026-05-07 09:38 27.04973 33.60896 28935 ft 430 kts 326°
2026-05-07 09:38 27.07568 33.59174 29149 ft 432 kts 326°
2026-05-07 09:39 27.10132 33.57475 29365 ft 433 kts 326°
2026-05-07 09:39 27.12764 33.55730 29571 ft 434 kts 326°
2026-05-07 09:39 27.15345 33.54016 29769 ft 436 kts 326°
2026-05-07 09:39 27.17952 33.52282 29966 ft 437 kts 326°
2026-05-07 09:40 27.20572 33.50538 30141 ft 438 kts 326°
2026-05-07 09:40 27.25836 33.47028 30170 ft 438 kts 326°
2026-05-07 09:41 27.31081 33.43529 30176 ft 438 kts 326°
2026-05-07 09:41 27.36053 33.39708 30181 ft 433 kts 316°
2026-05-07 09:42 27.40064 33.34698 30186 ft 428 kts 302°
2026-05-07 09:42 27.43070 33.28971 30190 ft 427 kts 297°
2026-05-07 09:43 27.45938 33.23127 30193 ft 428 kts 297°
2026-05-07 09:43 27.48828 33.17246 30192 ft 429 kts 297°
2026-05-07 09:44 27.51705 33.11396 30200 ft 429 kts 297°
2026-05-07 09:44 27.54595 33.05520 30210 ft 429 kts 297°
2026-05-07 09:45 27.57488 32.99632 30214 ft 430 kts 298°
2026-05-07 09:45 27.60364 32.93774 30220 ft 429 kts 297°
2026-05-07 09:46 27.63255 32.87877 30219 ft 429 kts 298°
2026-05-07 09:46 27.66142 32.81981 30216 ft 430 kts 297°
2026-05-07 09:47 27.69023 32.76086 30215 ft 429 kts 298°
2026-05-07 09:47 27.71897 32.70196 30219 ft 429 kts 298°
2026-05-07 09:48 27.74759 32.64326 30222 ft 429 kts 298°
2026-05-07 09:48 27.77629 32.58431 30229 ft 430 kts 298°
2026-05-07 09:49 27.80510 32.52502 30229 ft 430 kts 298°
2026-05-07 09:49 27.83372 32.46604 30237 ft 430 kts 298°
2026-05-07 09:50 27.86243 32.40682 30240 ft 430 kts 298°
2026-05-07 09:50 27.89109 32.34757 30250 ft 430 kts 297°
2026-05-07 09:51 27.91968 32.28841 30252 ft 430 kts 297°
2026-05-07 09:51 27.94842 32.22881 30259 ft 432 kts 297°
2026-05-07 09:52 27.97692 32.16960 30258 ft 431 kts 297°
2026-05-07 09:52 28.00583 32.11011 30254 ft 432 kts 301°
2026-05-07 09:53 28.04656 32.06033 30253 ft 435 kts 322°
2026-05-07 09:53 28.07262 32.04255 30250 ft 438 kts 333°
2026-05-07 09:53 28.10132 32.03038 30252 ft 439 kts 341°
2026-05-07 09:54 28.15990 32.01194 30249 ft 439 kts 342°
2026-05-07 09:54 28.21904 31.99369 30244 ft 439 kts 342°
2026-05-07 09:55 28.27784 31.97534 30242 ft 439 kts 342°
2026-05-07 09:55 28.33710 31.95676 30242 ft 439 kts 342°
2026-05-07 09:56 28.39595 31.93826 30244 ft 439 kts 342°
2026-05-07 09:56 28.45495 31.91967 30242 ft 438 kts 342°
2026-05-07 09:57 28.51331 31.90127 30241 ft 437 kts 342°
2026-05-07 09:57 28.57200 31.88273 30240 ft 437 kts 342°
2026-05-07 09:58 28.63081 31.86413 30236 ft 437 kts 342°
2026-05-07 09:58 28.68936 31.84559 30231 ft 438 kts 342°
2026-05-07 09:59 28.74830 31.82690 30225 ft 438 kts 342°
2026-05-07 09:59 28.80693 31.80828 30222 ft 437 kts 342°
2026-05-07 10:00 28.86545 31.78967 30220 ft 436 kts 342°
2026-05-07 10:00 28.92368 31.77113 30216 ft 436 kts 342°
2026-05-07 10:01 28.98222 31.75248 30223 ft 436 kts 342°
2026-05-07 10:01 29.04085 31.73363 30232 ft 437 kts 342°
2026-05-07 10:02 29.09936 31.71469 30239 ft 436 kts 342°
2026-05-07 10:02 29.15769 31.69577 30248 ft 436 kts 342°
2026-05-07 10:03 29.21627 31.67676 30251 ft 436 kts 342°
2026-05-07 10:03 29.27476 31.65774 30251 ft 436 kts 342°
2026-05-07 10:04 29.33287 31.63884 30256 ft 437 kts 342°
2026-05-07 10:04 29.39143 31.61976 30257 ft 437 kts 343°
2026-05-07 10:05 29.44984 31.60070 30259 ft 437 kts 343°
2026-05-07 10:05 29.50867 31.58149 30264 ft 437 kts 343°
2026-05-07 10:06 29.56699 31.56241 30259 ft 437 kts 343°
2026-05-07 10:06 29.62550 31.54324 30259 ft 437 kts 343°
2026-05-07 10:07 29.68399 31.52405 30260 ft 438 kts 343°
2026-05-07 10:07 29.74268 31.50475 30264 ft 438 kts 343°
2026-05-07 10:08 29.80110 31.48546 30260 ft 437 kts 343°
2026-05-07 10:08 29.85972 31.46605 30262 ft 437 kts 343°
2026-05-07 10:09 29.91832 31.44662 30268 ft 438 kts 343°
2026-05-07 10:09 29.97698 31.42714 30271 ft 438 kts 343°
2026-05-07 10:10 30.03583 31.40749 30269 ft 439 kts 341°
2026-05-07 10:10 30.09130 31.37946 30267 ft 437 kts 329°
2026-05-07 10:11 30.14035 31.33793 30267 ft 436 kts 317°
2026-05-07 10:11 30.18500 31.29023 30260 ft 435 kts 316°
2026-05-07 10:12 30.22906 31.24256 30256 ft 435 kts 316°
2026-05-07 10:12 30.27313 31.19501 30256 ft 435 kts 316°
2026-05-07 10:13 30.31728 31.14739 30255 ft 435 kts 316°
2026-05-07 10:13 30.36159 31.09956 30252 ft 434 kts 316°
2026-05-07 10:14 30.40548 31.05214 30251 ft 433 kts 316°
2026-05-07 10:14 30.44952 31.00449 30254 ft 433 kts 316°
2026-05-07 10:15 30.49347 30.95688 30251 ft 433 kts 316°
2026-05-07 10:15 30.53737 30.90924 30255 ft 434 kts 316°
2026-05-07 10:16 30.58160 30.86123 30255 ft 433 kts 316°
2026-05-07 10:16 30.62535 30.81366 30262 ft 431 kts 316°
2026-05-07 10:17 30.66914 30.76598 30261 ft 432 kts 316°
2026-05-07 10:17 30.71271 30.71849 30262 ft 431 kts 316°
2026-05-07 10:18 30.75632 30.67087 30264 ft 431 kts 316°
2026-05-07 10:18 30.80025 30.62282 30266 ft 431 kts 316°
2026-05-07 10:19 30.84369 30.57526 30269 ft 430 kts 316°
2026-05-07 10:19 30.88710 30.52766 30270 ft 431 kts 316°
2026-05-07 10:20 30.93069 30.47982 30273 ft 431 kts 316°
2026-05-07 10:20 30.97407 30.43213 30274 ft 430 kts 316°
2026-05-07 10:21 31.01756 30.38420 30273 ft 430 kts 316°
2026-05-07 10:21 31.06017 30.33566 30276 ft 428 kts 310°
2026-05-07 10:22 31.09417 30.27867 30269 ft 427 kts 298°
2026-05-07 10:22 31.11625 30.21498 30274 ft 428 kts 288°
2026-05-07 10:23 31.13405 30.14909 30283 ft 426 kts 288°
2026-05-07 10:23 31.15181 30.08318 30287 ft 426 kts 288°
2026-05-07 10:24 31.16975 30.01760 30293 ft 426 kts 290°
2026-05-07 10:24 31.18245 29.98614 30288 ft 426 kts 301°
2026-05-07 10:24 31.19963 29.95837 30292 ft 426 kts 311°
2026-05-07 10:25 31.24555 29.91517 30300 ft 427 kts 329°
2026-05-07 10:25 31.29796 29.88207 30301 ft 427 kts 330°
2026-05-07 10:26 31.35018 29.84961 30301 ft 426 kts 330°
2026-05-07 10:26 31.40260 29.81687 30300 ft 427 kts 330°
2026-05-07 10:27 31.45478 29.78418 30303 ft 427 kts 330°
2026-05-07 10:27 31.50725 29.75125 30306 ft 426 kts 330°
2026-05-07 10:28 31.55914 29.71862 30304 ft 426 kts 330°
2026-05-07 10:28 31.61144 29.68570 30306 ft 425 kts 330°
2026-05-07 10:29 31.66372 29.65276 30315 ft 426 kts 330°
2026-05-07 10:29 31.71556 29.62004 30307 ft 426 kts 330°
2026-05-07 10:30 31.79371 29.57063 30319 ft 425 kts 330°
2026-05-07 10:30 31.84582 29.53765 30319 ft 425 kts 330°
2026-05-07 10:31 31.89796 29.50457 30315 ft 425 kts 330°
2026-05-07 10:31 31.94986 29.47159 30318 ft 424 kts 330°
2026-05-07 10:32 32.00164 29.43867 30320 ft 423 kts 330°
2026-05-07 10:32 32.05370 29.40559 30320 ft 424 kts 330°
2026-05-07 10:33 32.10533 29.37270 30321 ft 423 kts 330°
2026-05-07 10:33 32.15715 29.33960 30324 ft 424 kts 330°
2026-05-07 10:34 32.20936 29.30623 30327 ft 425 kts 330°
2026-05-07 10:34 32.26082 29.27338 30328 ft 423 kts 330°
2026-05-07 10:35 32.31295 29.24002 30331 ft 424 kts 330°
2026-05-07 10:35 32.36466 29.20684 30332 ft 423 kts 330°
2026-05-07 10:36 32.41620 29.17370 30329 ft 422 kts 330°
2026-05-07 10:36 32.46767 29.14056 30332 ft 422 kts 330°
2026-05-07 10:37 32.51914 29.10738 30331 ft 422 kts 330°
2026-05-07 10:37 32.57064 29.07415 30331 ft 421 kts 330°
2026-05-07 10:38 32.62249 29.04061 30335 ft 423 kts 330°
2026-05-07 10:38 32.67372 29.00749 30339 ft 423 kts 330°
2026-05-07 10:39 32.72521 28.97413 30334 ft 422 kts 330°
2026-05-07 10:39 32.77705 28.94046 30339 ft 421 kts 330°
2026-05-07 10:40 32.82813 28.90727 30343 ft 421 kts 330°
2026-05-07 10:40 32.87947 28.87386 30339 ft 420 kts 330°
2026-05-07 10:41 32.93084 28.84044 30341 ft 420 kts 330°
2026-05-07 10:41 32.98201 28.80707 30338 ft 419 kts 330°
2026-05-07 10:42 33.03301 28.77374 30342 ft 420 kts 329°
2026-05-07 10:42 33.08444 28.74010 30341 ft 420 kts 329°
2026-05-07 10:43 33.13540 28.70669 30343 ft 420 kts 330°
2026-05-07 10:43 33.18654 28.67314 30345 ft 419 kts 330°
2026-05-07 10:44 33.23787 28.63943 30346 ft 420 kts 330°
2026-05-07 10:44 33.28881 28.60594 30344 ft 419 kts 330°
2026-05-07 10:45 33.33967 28.57246 30348 ft 418 kts 330°
2026-05-07 10:45 33.39082 28.53873 30350 ft 418 kts 330°
2026-05-07 10:46 33.44159 28.50519 30346 ft 418 kts 329°
2026-05-07 10:46 33.49256 28.47150 30351 ft 417 kts 329°
2026-05-07 10:47 33.54340 28.43781 30348 ft 417 kts 330°
2026-05-07 10:47 33.59412 28.40418 30351 ft 417 kts 330°
2026-05-07 10:48 33.64473 28.37057 30352 ft 416 kts 330°
2026-05-07 10:48 33.69524 28.33696 30351 ft 418 kts 329°
2026-05-07 10:49 33.74590 28.30318 30348 ft 416 kts 329°
2026-05-07 10:49 33.79655 28.26942 30352 ft 417 kts 329°
2026-05-07 10:50 33.84721 28.23543 30349 ft 415 kts 329°
2026-05-07 10:50 33.89753 28.20147 30351 ft 417 kts 329°
2026-05-07 10:51 33.94824 28.16722 30349 ft 418 kts 329°
2026-05-07 10:51 33.99861 28.13310 30347 ft 417 kts 329°
2026-05-07 10:52 34.04919 28.09880 30348 ft 416 kts 329°
2026-05-07 10:52 34.09951 28.06464 30345 ft 416 kts 329°
2026-05-07 10:53 34.14999 28.03034 30345 ft 416 kts 329°
2026-05-07 10:53 34.20031 27.99609 30343 ft 416 kts 329°
2026-05-07 10:54 34.25098 27.96157 30342 ft 417 kts 329°
2026-05-07 10:54 34.30115 27.92728 30342 ft 416 kts 329°
2026-05-07 10:55 34.35165 27.89275 30340 ft 415 kts 329°
2026-05-07 10:55 34.40191 27.85832 30342 ft 415 kts 329°
2026-05-07 10:56 34.45177 27.82415 30339 ft 415 kts 329°
2026-05-07 10:56 34.50194 27.78967 30340 ft 415 kts 329°
2026-05-07 10:57 34.55214 27.75515 30342 ft 414 kts 329°
2026-05-07 10:57 34.60219 27.72065 30339 ft 414 kts 329°
2026-05-07 10:58 34.65252 27.68587 30340 ft 414 kts 329°
2026-05-07 10:58 34.70243 27.65130 30341 ft 414 kts 329°
2026-05-07 10:59 34.75228 27.61674 30340 ft 414 kts 329°
2026-05-07 10:59 34.80247 27.58186 30340 ft 415 kts 329°
2026-05-07 11:00 34.85280 27.54687 30340 ft 416 kts 329°
2026-05-07 11:00 34.90294 27.51194 30340 ft 415 kts 329°
2026-05-07 11:01 34.95281 27.47713 30338 ft 415 kts 329°
2026-05-07 11:01 35.00275 27.44226 30339 ft 415 kts 329°
2026-05-07 11:02 35.05238 27.40753 30342 ft 415 kts 329°
2026-05-07 11:02 35.10275 27.37221 30337 ft 416 kts 329°
2026-05-07 11:03 35.15294 27.33699 30344 ft 415 kts 328°
2026-05-07 11:03 35.20275 27.30197 30338 ft 416 kts 328°
2026-05-07 11:04 35.25308 27.26657 30339 ft 416 kts 328°
2026-05-07 11:04 35.30330 27.23115 30336 ft 417 kts 328°
2026-05-07 11:05 35.35314 27.19593 30339 ft 416 kts 328°
2026-05-07 11:05 35.40337 27.16048 30338 ft 417 kts 329°
2026-05-07 11:06 35.45532 27.12856 30339 ft 418 kts 333°
2026-05-07 11:06 35.50805 27.09892 30341 ft 418 kts 333°
2026-05-07 11:07 35.56095 27.06921 30342 ft 418 kts 333°
2026-05-07 11:07 35.61394 27.03933 30345 ft 419 kts 333°
2026-05-07 11:08 35.66681 27.00949 30344 ft 418 kts 333°
2026-05-07 11:08 35.71959 26.97963 30343 ft 418 kts 333°
2026-05-07 11:09 35.77230 26.94979 30342 ft 419 kts 333°
2026-05-07 11:09 35.82534 26.91965 30338 ft 419 kts 333°
2026-05-07 11:10 35.87829 26.88954 30190 ft 419 kts 333°
2026-05-07 11:10 35.93141 26.85922 30550 ft 420 kts 333°
2026-05-07 11:11 35.95793 26.84407 30895 ft 418 kts 333°
2026-05-07 11:11 35.98411 26.82908 31260 ft 416 kts 332°
2026-05-07 11:11 36.01010 26.81418 31615 ft 414 kts 332°
2026-05-07 11:11 36.03630 26.79914 31951 ft 412 kts 332°
2026-05-07 11:12 36.06187 26.78446 32275 ft 410 kts 332°
2026-05-07 11:12 36.08767 26.76963 32580 ft 409 kts 332°
2026-05-07 11:12 36.11366 26.75467 32881 ft 408 kts 332°
2026-05-07 11:12 36.13926 26.73991 33167 ft 407 kts 332°
2026-05-07 11:13 36.16475 26.72521 33499 ft 405 kts 332°
2026-05-07 11:13 36.19037 26.71043 33812 ft 403 kts 332°
2026-05-07 11:13 36.21548 26.69591 34103 ft 402 kts 332°
2026-05-07 11:13 36.24093 26.68120 34410 ft 400 kts 332°
2026-05-07 11:14 36.26598 26.66676 34727 ft 399 kts 331°
2026-05-07 11:14 36.29102 26.65228 35023 ft 397 kts 332°
2026-05-07 11:14 36.31614 26.63776 35332 ft 395 kts 331°
2026-05-07 11:14 36.34072 26.62355 35653 ft 393 kts 331°
2026-05-07 11:15 36.36536 26.60928 35940 ft 391 kts 331°
2026-05-07 11:15 36.39013 26.59492 36137 ft 390 kts 331°
2026-05-07 11:15 36.43882 26.56658 36140 ft 389 kts 331°
2026-05-07 11:16 36.48775 26.53810 36136 ft 389 kts 330°
2026-05-07 11:16 36.53699 26.50942 36139 ft 390 kts 330°
2026-05-07 11:17 36.58592 26.48093 36140 ft 389 kts 330°
2026-05-07 11:17 36.63485 26.45231 36141 ft 389 kts 330°
2026-05-07 11:18 36.68376 26.42369 36139 ft 390 kts 330°
2026-05-07 11:18 36.73280 26.39490 36142 ft 390 kts 331°
2026-05-07 11:19 36.78186 26.36607 36141 ft 391 kts 331°
2026-05-07 11:19 36.83098 26.33717 36144 ft 390 kts 330°
2026-05-07 11:20 36.88025 26.30813 36143 ft 391 kts 330°
2026-05-07 11:20 36.92923 26.27919 36143 ft 391 kts 330°
2026-05-07 11:21 36.97850 26.25013 36143 ft 392 kts 330°
2026-05-07 11:21 37.02739 26.22058 35990 ft 391 kts 329°
2026-05-07 11:22 37.07626 26.19073 36122 ft 392 kts 329°
2026-05-07 11:22 37.12538 26.16072 36147 ft 392 kts 329°
2026-05-07 11:23 37.17445 26.13069 36151 ft 393 kts 329°
2026-05-07 11:23 37.22329 26.10075 36151 ft 393 kts 329°
2026-05-07 11:24 37.27265 26.07045 36149 ft 393 kts 329°
2026-05-07 11:24 37.32153 26.04042 36148 ft 394 kts 329°
2026-05-07 11:25 37.37073 26.01014 36146 ft 395 kts 329°
2026-05-07 11:25 37.42007 25.97972 36141 ft 395 kts 329°
2026-05-07 11:26 37.46911 25.94945 36136 ft 395 kts 329°
2026-05-07 11:26 37.51850 25.91889 36140 ft 396 kts 329°
2026-05-07 11:27 37.56772 25.88841 36137 ft 396 kts 329°
2026-05-07 11:27 37.61713 25.85781 36145 ft 395 kts 329°
2026-05-07 11:28 37.66665 25.82713 36133 ft 396 kts 329°
2026-05-07 11:28 37.71595 25.79647 36137 ft 397 kts 329°
2026-05-07 11:29 37.76531 25.76575 36128 ft 396 kts 329°
2026-05-07 11:29 37.81466 25.73494 36131 ft 397 kts 329°
2026-05-07 11:30 37.86432 25.70394 36127 ft 397 kts 329°
2026-05-07 11:30 37.91369 25.67304 36118 ft 398 kts 329°
2026-05-07 11:31 37.96336 25.64191 36116 ft 398 kts 329°
2026-05-07 11:31 38.01311 25.61067 36121 ft 398 kts 329°
2026-05-07 11:32 38.08736 25.56401 36118 ft 398 kts 329°
2026-05-07 11:33 38.13676 25.53284 36112 ft 399 kts 329°
2026-05-07 11:33 38.18650 25.50145 36114 ft 399 kts 329°
2026-05-07 11:34 38.23603 25.47015 36114 ft 400 kts 329°
2026-05-07 11:34 38.28588 25.43858 36111 ft 400 kts 329°
2026-05-07 11:35 38.33580 25.40694 36109 ft 401 kts 329°
2026-05-07 11:35 38.38596 25.37509 36109 ft 403 kts 329°
2026-05-07 11:36 38.43579 25.34340 36111 ft 403 kts 329°
2026-05-07 11:36 38.48606 25.31136 36115 ft 404 kts 329°
2026-05-07 11:37 38.53627 25.27935 36117 ft 405 kts 329°
2026-05-07 11:37 38.58678 25.24708 36109 ft 406 kts 329°
2026-05-07 11:38 38.63714 25.21484 36110 ft 408 kts 329°
2026-05-07 11:38 38.68787 25.18233 36111 ft 407 kts 329°
2026-05-07 11:39 38.73827 25.14996 36111 ft 407 kts 329°
2026-05-07 11:39 38.78899 25.11732 36109 ft 408 kts 329°
2026-05-07 11:40 38.83978 25.08461 36118 ft 409 kts 329°
2026-05-07 11:40 38.89064 25.05179 36122 ft 411 kts 329°
2026-05-07 11:41 38.94164 25.01881 36111 ft 412 kts 329°
2026-05-07 11:41 38.99265 24.98580 36112 ft 412 kts 329°
2026-05-07 11:42 39.04407 24.95242 36117 ft 413 kts 329°
2026-05-07 11:42 39.09515 24.91924 36112 ft 414 kts 329°
2026-05-07 11:43 39.14687 24.88686 36118 ft 415 kts 331°
2026-05-07 11:43 39.19901 24.85476 36116 ft 415 kts 331°
2026-05-07 11:44 39.25106 24.82253 36112 ft 415 kts 331°
2026-05-07 11:44 39.30312 24.79018 36113 ft 416 kts 331°
2026-05-07 11:45 39.35506 24.75783 36111 ft 416 kts 330°
2026-05-07 11:45 39.40706 24.72535 36116 ft 417 kts 331°
2026-05-07 11:46 39.45917 24.69276 36115 ft 418 kts 331°
2026-05-07 11:46 39.51136 24.66010 36112 ft 418 kts 331°
2026-05-07 11:47 39.56374 24.62734 36109 ft 418 kts 331°
2026-05-07 11:47 39.61594 24.59461 36111 ft 419 kts 331°
2026-05-07 11:48 39.66847 24.56158 36112 ft 420 kts 331°
2026-05-07 11:48 39.72081 24.52862 36116 ft 420 kts 331°
2026-05-07 11:49 39.77358 24.49532 36122 ft 421 kts 331°
2026-05-07 11:49 39.82590 24.46224 36115 ft 422 kts 331°
2026-05-07 11:50 39.87862 24.42886 36110 ft 422 kts 330°
2026-05-07 11:50 39.93158 24.39527 36115 ft 422 kts 330°
2026-05-07 11:51 39.98423 24.36182 36114 ft 423 kts 331°
2026-05-07 11:51 40.03710 24.32816 36115 ft 424 kts 330°
2026-05-07 11:52 40.09000 24.29443 36114 ft 423 kts 330°
2026-05-07 11:52 40.14280 24.26068 36116 ft 425 kts 330°
2026-05-07 11:53 40.19583 24.22673 36119 ft 426 kts 330°
2026-05-07 11:53 40.24916 24.19256 36120 ft 425 kts 330°
2026-05-07 11:54 40.30206 24.15858 36122 ft 426 kts 330°
2026-05-07 11:54 40.35500 24.12452 36117 ft 426 kts 330°
2026-05-07 11:55 40.40830 24.09014 36113 ft 427 kts 330°
2026-05-07 11:55 40.46155 24.05574 36111 ft 428 kts 330°
2026-05-07 11:56 40.51491 24.02120 36109 ft 428 kts 330°
2026-05-07 11:56 40.56899 23.98879 36109 ft 430 kts 335°
2026-05-07 11:57 40.62609 23.96375 36110 ft 434 kts 341°
2026-05-07 11:57 40.68518 23.94678 36113 ft 437 kts 346°
2026-05-07 11:58 40.74483 23.93271 36114 ft 438 kts 346°
2026-05-07 11:58 40.80503 23.91852 36117 ft 439 kts 346°
2026-05-07 11:59 40.86498 23.90426 36129 ft 440 kts 346°
2026-05-07 11:59 40.92488 23.88997 36133 ft 439 kts 346°
2026-05-07 12:00 40.98491 23.87558 36125 ft 440 kts 346°
2026-05-07 12:00 41.04528 23.86110 36120 ft 440 kts 346°
2026-05-07 12:01 41.10570 23.84655 36133 ft 441 kts 346°
2026-05-07 12:01 41.16578 23.83210 36132 ft 441 kts 346°
2026-05-07 12:02 41.22608 23.81751 36138 ft 441 kts 346°
2026-05-07 12:02 41.28618 23.80295 36142 ft 441 kts 346°
2026-05-07 12:03 41.34662 23.78838 36145 ft 442 kts 346°
2026-05-07 12:03 41.40723 23.77455 36148 ft 444 kts 348°
2026-05-07 12:04 41.46873 23.76534 36149 ft 444 kts 350°
2026-05-07 12:04 41.52980 23.75684 36150 ft 444 kts 350°
2026-05-07 12:05 41.59134 23.74816 36156 ft 445 kts 350°
2026-05-07 12:05 41.65310 23.73941 36157 ft 445 kts 350°
2026-05-07 12:06 41.71457 23.73063 36164 ft 446 kts 350°
2026-05-07 12:06 41.77611 23.72184 36167 ft 445 kts 350°
2026-05-07 12:07 41.83731 23.71305 36166 ft 445 kts 350°
2026-05-07 12:07 41.89870 23.70424 36162 ft 444 kts 350°
2026-05-07 12:08 41.96015 23.69542 36159 ft 444 kts 350°
2026-05-07 12:08 42.02162 23.68653 36153 ft 444 kts 350°
2026-05-07 12:09 42.08278 23.67771 36154 ft 444 kts 350°
2026-05-07 12:09 42.14403 23.66882 36156 ft 444 kts 350°
2026-05-07 12:10 42.20563 23.65988 36151 ft 445 kts 350°
2026-05-07 12:10 42.26700 23.65093 36139 ft 445 kts 349°
2026-05-07 12:11 42.32748 23.63707 36139 ft 442 kts 343°
2026-05-07 12:11 42.38707 23.61698 36133 ft 441 kts 342°
2026-05-07 12:12 42.44637 23.59630 36127 ft 442 kts 342°
2026-05-07 12:12 42.50610 23.57553 36120 ft 443 kts 342°
2026-05-07 12:13 42.56558 23.55486 36113 ft 442 kts 342°
2026-05-07 12:13 42.62516 23.53414 36115 ft 443 kts 342°
2026-05-07 12:14 42.68471 23.51337 36111 ft 443 kts 342°
2026-05-07 12:14 42.74413 23.49264 36110 ft 443 kts 342°
2026-05-07 12:15 42.80403 23.47170 36104 ft 444 kts 342°
2026-05-07 12:15 42.86348 23.45085 36107 ft 444 kts 342°
2026-05-07 12:16 42.92348 23.42976 36104 ft 445 kts 342°
2026-05-07 12:16 42.98298 23.40881 36108 ft 445 kts 342°
2026-05-07 12:17 43.04286 23.38769 36102 ft 445 kts 342°
2026-05-07 12:17 43.10279 23.36649 36097 ft 446 kts 342°
2026-05-07 12:18 43.16283 23.34524 36088 ft 446 kts 341°
2026-05-07 12:18 43.22330 23.32749 36081 ft 448 kts 347°
2026-05-07 12:19 43.28547 23.31795 36075 ft 450 kts 351°
2026-05-07 12:19 43.34810 23.31057 36069 ft 450 kts 351°
2026-05-07 12:20 43.41003 23.30292 36063 ft 451 kts 351°
2026-05-07 12:20 43.47255 23.29509 36060 ft 451 kts 351°
2026-05-07 12:21 43.53508 23.28729 36057 ft 451 kts 351°
2026-05-07 12:21 43.59750 23.27962 36060 ft 451 kts 351°
2026-05-07 12:22 43.65984 23.27190 36057 ft 451 kts 351°
2026-05-07 12:22 43.72197 23.26419 36051 ft 451 kts 351°
2026-05-07 12:23 43.78460 23.25637 36047 ft 451 kts 351°
2026-05-07 12:23 43.84600 23.24398 36048 ft 447 kts 344°
2026-05-07 12:24 43.90615 23.22303 36048 ft 445 kts 341°
2026-05-07 12:24 43.96564 23.20003 36043 ft 446 kts 340°
2026-05-07 12:25 44.02558 23.17682 36035 ft 447 kts 340°
2026-05-07 12:25 44.08526 23.15378 36036 ft 447 kts 340°
2026-05-07 12:26 44.14528 23.13058 36037 ft 447 kts 340°
2026-05-07 12:26 44.20551 23.10729 36037 ft 448 kts 340°
2026-05-07 12:27 44.26524 23.08414 36037 ft 448 kts 340°
2026-05-07 12:27 44.32505 23.06089 36039 ft 448 kts 340°
2026-05-07 12:28 44.38485 23.03759 36042 ft 449 kts 340°
2026-05-07 12:28 44.44497 23.01412 36042 ft 450 kts 340°
2026-05-07 12:29 44.50515 22.99059 36040 ft 450 kts 340°
2026-05-07 12:29 44.56554 22.96692 36036 ft 451 kts 340°
2026-05-07 12:30 44.62581 22.94326 36030 ft 451 kts 340°
2026-05-07 12:30 44.68605 22.91953 36029 ft 452 kts 340°
2026-05-07 12:31 44.74670 22.89564 36032 ft 452 kts 340°
2026-05-07 12:31 44.80719 22.87172 36031 ft 453 kts 340°
2026-05-07 12:32 44.86762 22.84779 36036 ft 452 kts 340°
2026-05-07 12:32 44.92791 22.82382 36037 ft 452 kts 340°
2026-05-07 12:33 45.01873 22.78767 36042 ft 453 kts 340°
2026-05-07 12:33 45.07900 22.76361 36048 ft 453 kts 340°
2026-05-07 12:34 45.13959 22.73936 36050 ft 453 kts 340°
2026-05-07 12:34 45.20033 22.71500 36058 ft 453 kts 340°
2026-05-07 12:35 45.26074 22.69073 36067 ft 453 kts 340°
2026-05-07 12:35 45.32147 22.66627 36063 ft 454 kts 340°
2026-05-07 12:36 45.38171 22.64195 36055 ft 454 kts 340°
2026-05-07 12:36 45.44259 22.61733 36049 ft 453 kts 340°
2026-05-07 12:37 45.50279 22.59292 36045 ft 454 kts 340°
2026-05-07 12:37 45.56344 22.56825 36042 ft 453 kts 340°
2026-05-07 12:38 45.62396 22.54361 36043 ft 453 kts 340°
2026-05-07 12:38 45.68463 22.51882 36040 ft 453 kts 340°
2026-05-07 12:39 45.74507 22.49409 36046 ft 454 kts 340°
2026-05-07 12:39 45.80556 22.46927 36045 ft 454 kts 340°
2026-05-07 12:40 45.86607 22.44441 36038 ft 454 kts 340°
2026-05-07 12:40 45.92679 22.41938 36027 ft 454 kts 340°
2026-05-07 12:41 45.98732 22.39435 36025 ft 454 kts 340°
2026-05-07 12:41 46.04771 22.36936 36019 ft 454 kts 340°
2026-05-07 12:42 46.10841 22.34424 36014 ft 454 kts 340°
2026-05-07 12:42 46.16915 22.31905 36013 ft 454 kts 339°
2026-05-07 12:43 46.22936 22.29396 36012 ft 454 kts 339°
2026-05-07 12:43 46.29001 22.26865 36013 ft 455 kts 339°
2026-05-07 12:44 46.35090 22.24314 36014 ft 455 kts 340°
2026-05-07 12:44 46.41150 22.21772 36015 ft 455 kts 339°
2026-05-07 12:45 46.47207 22.19227 36012 ft 455 kts 339°
2026-05-07 12:45 46.53277 22.16669 36013 ft 456 kts 339°
2026-05-07 12:46 46.59368 22.14095 36013 ft 456 kts 339°
2026-05-07 12:46 46.65432 22.11526 36008 ft 456 kts 339°
2026-05-07 12:47 46.71504 22.08947 36008 ft 457 kts 339°
2026-05-07 12:47 46.77575 22.06364 36011 ft 458 kts 339°
2026-05-07 12:48 46.83683 22.03758 36012 ft 458 kts 339°
2026-05-07 12:48 46.89807 22.01140 36014 ft 459 kts 339°
2026-05-07 12:49 46.95922 21.98518 36014 ft 459 kts 339°
2026-05-07 12:49 47.02032 21.95894 36021 ft 459 kts 339°
2026-05-07 12:50 47.08128 21.93267 36027 ft 460 kts 339°
2026-05-07 12:50 47.14270 21.90613 36021 ft 458 kts 339°
2026-05-07 12:51 47.20375 21.87969 36018 ft 459 kts 339°
2026-05-07 12:51 47.26477 21.85334 36013 ft 459 kts 340°
2026-05-07 12:52 47.32592 21.82804 36014 ft 459 kts 340°
2026-05-07 12:52 47.38716 21.80273 36006 ft 459 kts 340°
2026-05-07 12:53 47.44876 21.77710 36007 ft 459 kts 340°
2026-05-07 12:53 47.51012 21.75146 36011 ft 460 kts 340°
2026-05-07 12:54 47.57123 21.72584 36007 ft 460 kts 340°
2026-05-07 12:54 47.63249 21.70012 36000 ft 460 kts 340°
2026-05-07 12:55 47.69396 21.67422 35998 ft 460 kts 340°
2026-05-07 12:55 47.75521 21.64835 35991 ft 460 kts 340°
2026-05-07 12:56 47.81660 21.62236 35994 ft 460 kts 340°
2026-05-07 12:56 47.87792 21.59634 35993 ft 459 kts 340°
2026-05-07 12:57 47.93931 21.57024 35998 ft 460 kts 340°
2026-05-07 12:57 48.00064 21.54407 35999 ft 459 kts 340°
2026-05-07 12:58 48.06175 21.51797 35991 ft 459 kts 340°
2026-05-07 12:58 48.12334 21.49155 35988 ft 460 kts 340°
2026-05-07 12:59 48.18442 21.46532 35981 ft 461 kts 340°
2026-05-07 12:59 48.24594 21.43880 35966 ft 461 kts 339°
2026-05-07 13:00 48.30783 21.41208 35966 ft 461 kts 340°
2026-05-07 13:00 48.36897 21.38561 35959 ft 462 kts 340°
2026-05-07 13:01 48.43061 21.35885 35965 ft 462 kts 340°
2026-05-07 13:01 48.49243 21.33195 35962 ft 462 kts 339°
2026-05-07 13:02 48.55372 21.30519 35958 ft 462 kts 339°
2026-05-07 13:02 48.61539 21.27819 35957 ft 462 kts 339°
2026-05-07 13:03 48.67690 21.25130 35956 ft 463 kts 340°
2026-05-07 13:03 48.73975 21.22781 35956 ft 464 kts 342°
2026-05-07 13:04 48.80248 21.20543 35953 ft 465 kts 342°
2026-05-07 13:04 48.86244 21.17340 35946 ft 456 kts 326°
2026-05-07 13:05 48.91451 21.12001 35947 ft 451 kts 319°
2026-05-07 13:05 48.96563 21.06542 35953 ft 452 kts 320°
2026-05-07 13:06 49.01765 21.01138 35956 ft 453 kts 320°
2026-05-07 13:06 49.06943 20.95710 35713 ft 450 kts 320°
2026-05-07 13:07 49.09487 20.93025 34795 ft 452 kts 320°
2026-05-07 13:07 49.12077 20.90274 33174 ft 460 kts 320°
2026-05-07 13:07 49.14665 20.87508 31400 ft 469 kts 320°
2026-05-07 13:07 49.17342 20.84646 29568 ft 476 kts 321°
2026-05-07 13:08 49.20027 20.81778 27963 ft 476 kts 321°
2026-05-07 13:08 49.22681 20.78947 27035 ft 461 kts 321°
2026-05-07 13:08 49.25259 20.76197 25954 ft 453 kts 321°
2026-05-07 13:08 49.27825 20.73444 24751 ft 447 kts 321°
2026-05-07 13:09 49.30346 20.70735 23585 ft 441 kts 321°
2026-05-07 13:09 49.32801 20.68093 22482 ft 434 kts 321°
2026-05-07 13:09 49.35252 20.65451 21422 ft 427 kts 321°
2026-05-07 13:09 49.37632 20.62887 20412 ft 418 kts 321°
2026-05-07 13:10 49.39959 20.60375 19406 ft 410 kts 321°
2026-05-07 13:10 49.42241 20.57907 18410 ft 403 kts 321°
2026-05-07 13:10 49.44523 20.55436 17416 ft 395 kts 322°
2026-05-07 13:10 49.46716 20.53057 16430 ft 389 kts 322°
2026-05-07 13:11 49.48906 20.50680 15505 ft 381 kts 322°
2026-05-07 13:11 49.51020 20.48386 15018 ft 366 kts 322°
2026-05-07 13:11 49.53058 20.46173 14569 ft 356 kts 322°
2026-05-07 13:11 49.55039 20.44016 14152 ft 348 kts 322°
2026-05-07 13:12 49.56988 20.41892 13726 ft 342 kts 322°
2026-05-07 13:12 49.58900 20.39805 13302 ft 337 kts 322°
2026-05-07 13:12 49.60806 20.37721 12879 ft 333 kts 322°
2026-05-07 13:12 49.62667 20.35686 12468 ft 329 kts 322°
2026-05-07 13:13 49.64531 20.33647 12063 ft 326 kts 321°
2026-05-07 13:13 49.66347 20.31657 11672 ft 323 kts 321°
2026-05-07 13:13 49.68179 20.29650 11270 ft 321 kts 321°
2026-05-07 13:13 49.69981 20.27673 10871 ft 318 kts 321°
2026-05-07 13:14 49.71757 20.25722 10549 ft 310 kts 321°
2026-05-07 13:14 49.73470 20.23843 10433 ft 296 kts 321°
2026-05-07 13:14 49.75135 20.22012 10309 ft 293 kts 321°
2026-05-07 13:14 49.76783 20.20201 10180 ft 292 kts 323°
2026-05-07 13:15 49.78616 20.18891 10024 ft 296 kts 346°
2026-05-07 13:15 49.80682 20.18834 9661 ft 299 kts
2026-05-07 13:15 49.82712 20.19344 9307 ft 296 kts
2026-05-07 13:15 49.84736 20.19861 8956 ft 295 kts
2026-05-07 13:16 49.86754 20.20361 8604 ft 294 kts
2026-05-07 13:16 49.88777 20.20747 8233 ft 293 kts 357°
2026-05-07 13:16 49.90773 20.20165 7798 ft 291 kts 339°
2026-05-07 13:16 49.92657 20.19088 7489 ft 289 kts 336°
2026-05-07 13:17 49.94523 20.17992 7165 ft 285 kts 337°
2026-05-07 13:17 49.96377 20.16966 6841 ft 281 kts 338°
2026-05-07 13:17 49.98210 20.16006 6528 ft 276 kts 339°
2026-05-07 13:17 50.00016 20.15092 6184 ft 273 kts 340°
2026-05-07 13:18 50.01828 20.14192 5674 ft 278 kts 340°
2026-05-07 13:18 50.03685 20.13279 5071 ft 284 kts 340°
2026-05-07 13:18 50.05590 20.12346 4463 ft 290 kts 340°
2026-05-07 13:18 50.07462 20.11437 4068 ft 276 kts 340°
2026-05-07 13:19 50.09209 20.10590 3973 ft 252 kts 340°
2026-05-07 13:19 50.10786 20.09604 3953 ft 236 kts 321°
2026-05-07 13:19 50.11687 20.07662 3940 ft 218 kts 282°
2026-05-07 13:19 50.11657 20.05366 3976 ft 215 kts 257°
2026-05-07 13:20 50.11278 20.03121 4038 ft 206 kts 256°
2026-05-07 13:20 50.10954 20.01091 4017 ft 186 kts 258°
2026-05-07 13:20 50.10673 19.99182 3764 ft 180 kts 258°
2026-05-07 13:20 50.10396 19.97223 3155 ft 188 kts 259°
2026-05-07 13:21 50.10122 19.95260 2747 ft 186 kts 259°
2026-05-07 13:21 50.09855 19.93364 2477 ft 172 kts 259°
2026-05-07 13:21 50.09615 19.91651 2281 ft 154 kts 259°
2026-05-07 13:21 50.09391 19.90053 2080 ft 149 kts 259°
2026-05-07 13:22 50.09173 19.88494 1897 ft 148 kts 257°
2026-05-07 13:22 50.08952 19.86922 1706 ft 148 kts 259°
2026-05-07 13:22 50.08744 19.85358 1522 ft 147 kts 259°
2026-05-07 13:22 50.08538 19.83805 1319 ft 147 kts 256°
2026-05-07 13:23 50.08285 19.82262 1109 ft 147 kts 256°
2026-05-07 13:23 50.08078 19.80710 917 ft 147 kts 258°
2026-05-07 13:23 50.07869 19.79152 804 ft 140 kts 258°
2026-05-07 13:23 50.07692 19.77895 801 ft 95 kts 257°
2026-05-07 13:24 50.07595 19.77208 801 ft 35 kts 257°
2026-05-07 13:24 50.07548 19.76905 801 ft 14 kts 247°
2026-05-07 13:24 50.07464 19.76857 801 ft 13 kts 175°
2026-05-07 13:24 50.07358 19.76888 801 ft 16 kts 168°
2026-05-07 13:25 50.07315 19.77018 801 ft 15 kts 77°
2026-05-07 13:25 50.07339 19.77186 801 ft 16 kts 78°
2026-05-07 13:25 50.07364 19.77356 801 ft 16 kts 78°
2026-05-07 13:25 50.07387 19.77527 801 ft 16 kts 78°
2026-05-07 13:26 50.07412 19.77698 801 ft 16 kts 77°
2026-05-07 13:26 50.07435 19.77871 801 ft 16 kts 78°
2026-05-07 13:26 50.07460 19.78046 801 ft 16 kts 78°
2026-05-07 13:26 50.07484 19.78222 801 ft 16 kts 78°
2026-05-07 13:27 50.07509 19.78397 801 ft 16 kts 78°
2026-05-07 13:27 50.07532 19.78571 801 ft 16 kts 78°
2026-05-07 13:27 50.07557 19.78749 801 ft 16 kts 78°
2026-05-07 13:27 50.07581 19.78926 801 ft 16 kts 78°
2026-05-07 13:28 50.07603 19.79095 801 ft 15 kts 78°
2026-05-07 13:28 50.07625 19.79255 801 ft 14 kts 79°
2026-05-07 13:28 50.07644 19.79406 801 ft 14 kts 79°
2026-05-07 13:28 50.07664 19.79550 801 ft 13 kts 78°
2026-05-07 13:29 50.07670 19.79670 801 ft 8 kts 139°
2026-05-07 13:29 50.07605 19.79711 801 ft 12 kts 169°
2026-05-07 13:29 50.07520 19.79735 801 ft 12 kts 170°
2026-05-07 13:29 50.07439 19.79759 801 ft 11 kts 169°
2026-05-07 13:30 50.07362 19.79779 801 ft 11 kts 175°
2026-05-07 13:30 50.07305 19.79788 801 ft 0 kts 167°